Kincheloe, MI

10:45 AM EST on February 24, 2017 (GMT -0500)
Chippewa County International

Weather History for KCIU - November, 2013

Change the Weather History Date:

Friday, November 8, 2013

  Actual Average Record
Temperature  
Mean Temperature 34 °F -  
Max Temperature 37 °F 42 °F 56 °F (1983)
Min Temperature 30 °F 24 °F 3 °F (1991)
Degree Days  
Heating Degree Days 32    
Moisture  
Dew Point 32 °F    
Average Humidity 96    
Maximum Humidity 100    
Minimum Humidity 81    
Precipitation  
Precipitation 0.16 in - - ()
Sea Level Pressure  
Sea Level Pressure 30.10 in    
Wind  
Wind Speed 7 mph (WSW)    
Max Wind Speed 10 mph    
Max Gust Speed -    
Visibility 8 miles    
Events      
Averages and records for this station are not official NWS values.
T = Trace of Precipitation, MM = Missing Value Source: NWS Daily Summary

Daily Weather History Graph

Daily Weather History Graph

Search for Another Location

Airport or City:

Trip Planner

Search our weather history database for the weather conditions in past years. The results will help you decide how hot, cold, wet, or windy it might be!

Date:

Astronomy

Nov. 08, 2013 Rise Set
Actual Time 7:29 AM EST 5:13 PM EST
Civil Twilight 6:57 AM EST 5:45 PM EST
Nautical Twilight 6:21 AM EST 6:21 PM EST
Astronomical Twilight 5:46 AM EST 6:56 PM EST
Moon 12:24 PM EST (11/8) 10:34 PM EST (11/8)
Length of Visible Light 10h 47m
Length of Day
9h 43m
Waxing Crescent, 33% of the Moon is Illuminated
Nov 8
Waxing Crescent
Nov 10
First Quarter
Nov 17
Full
Nov 25
Last Quarter
Dec 2
New

Hourly Weather History & Observations

Time (EST) Temp. Windchill Dew Point Humidity Pressure Visibility Wind Dir Wind Speed Gust Speed Precip Events Conditions
12:15 AM 32.0 °F 26.4 °F 32.0 °F 100% 30.01 in 9.0 mi West 5.8 mph - N/A   Overcast
12:35 AM 32.0 °F 26.4 °F 32.0 °F 100% 30.02 in 2.5 mi NW 5.8 mph - N/A   Overcast
12:55 AM 32.0 °F 25.6 °F 32.0 °F 100% 30.02 in 1.2 mi West 6.9 mph - N/A   Overcast
1:15 AM 32.0 °F 23.6 °F 32.0 °F 100% 30.02 in 3.0 mi West 10.4 mph - N/A   Overcast
1:35 AM 32.0 °F 23.6 °F 32.0 °F 100% 30.03 in 3.0 mi West 10.4 mph - 0.01 in   Mostly Cloudy
1:55 AM 32.0 °F 25.6 °F 32.0 °F 100% 30.03 in 3.0 mi West 6.9 mph - 0.01 in   Overcast
2:15 AM 32.0 °F 24.8 °F 32.0 °F 100% 30.03 in 8.0 mi West 8.1 mph - 0.01 in   Mostly Cloudy
2:35 AM 32.0 °F 25.6 °F 32.0 °F 100% 30.03 in 10.0 mi West 6.9 mph - 0.01 in   Overcast
2:55 AM 32.0 °F 24.2 °F 32.0 °F 100% 30.04 in 1.8 mi West 9.2 mph - 0.01 in   Overcast
3:15 AM 32.0 °F 24.8 °F 32.0 °F 100% 30.04 in 2.0 mi West 8.1 mph - N/A   Overcast
3:35 AM 32.0 °F 24.8 °F 32.0 °F 100% 30.05 in 7.0 mi West 8.1 mph - N/A   Overcast
3:55 AM 32.0 °F 24.8 °F 32.0 °F 100% 30.05 in 10.0 mi WSW 8.1 mph - 0.01 in   Overcast
4:15 AM 32.0 °F 23.6 °F 32.0 °F 100% 30.05 in 4.0 mi West 10.4 mph - N/A   Mostly Cloudy
4:35 AM 30.2 °F 21.9 °F 30.2 °F 100% 30.06 in 5.0 mi West 9.2 mph - N/A   Overcast
4:55 AM 30.2 °F 23.4 °F 30.2 °F 100% 30.07 in 5.0 mi West 6.9 mph - N/A   Overcast
5:15 AM 30.2 °F 23.4 °F 30.2 °F 100% 30.07 in 10.0 mi West 6.9 mph - N/A   Overcast
5:35 AM 30.2 °F 23.4 °F 30.2 °F 100% 30.08 in 10.0 mi West 6.9 mph - N/A   Overcast
5:55 AM 30.2 °F 24.3 °F 30.2 °F 100% 30.08 in 10.0 mi West 5.8 mph - N/A   Overcast
6:15 AM 30.2 °F 24.3 °F 30.2 °F 100% 30.09 in 7.0 mi WSW 5.8 mph - N/A   Mostly Cloudy
6:35 AM 30.2 °F 23.4 °F 30.2 °F 100% 30.09 in 10.0 mi WSW 6.9 mph - 0.01 in   Overcast
6:55 AM 30.2 °F 23.4 °F 30.2 °F 100% 30.10 in 3.0 mi West 6.9 mph - 0.01 in   Mostly Cloudy
7:15 AM 32.0 °F 24.8 °F 32.0 °F 100% 30.11 in 0.8 mi WSW 8.1 mph - N/A   Overcast
7:35 AM 32.0 °F 25.6 °F 32.0 °F 100% 30.11 in 5.0 mi WSW 6.9 mph - N/A   Overcast
7:55 AM 32.0 °F 24.8 °F 32.0 °F 100% 30.12 in 2.0 mi West 8.1 mph - N/A   Overcast
8:15 AM 32.0 °F 24.2 °F 30.2 °F 93% 30.13 in 0.5 mi West 9.2 mph - 0.01 in   Overcast
8:35 AM 32.0 °F 26.4 °F 32.0 °F 100% 30.13 in 1.8 mi West 5.8 mph - 0.02 in   Overcast
8:55 AM 33.8 °F 30.8 °F 33.8 °F 100% 30.13 in 10.0 mi SW 3.5 mph - 0.03 in   Overcast
9:15 AM 33.8 °F 29.6 °F 33.8 °F 100% 30.14 in 10.0 mi WSW 4.6 mph - 0.01 in   Overcast
9:35 AM 33.8 °F 27.7 °F 33.8 °F 100% 30.14 in 3.0 mi West 6.9 mph - 0.01 in   Overcast
9:55 AM 33.8 °F 29.6 °F 33.8 °F 100% 30.14 in 0.8 mi West 4.6 mph - 0.02 in   Overcast
10:15 AM 33.8 °F 27.0 °F 33.8 °F 100% 30.15 in 1.5 mi WNW 8.1 mph - 0.01 in   Overcast
10:35 AM 33.8 °F 28.6 °F 33.8 °F 100% 30.15 in 4.0 mi West 5.8 mph - 0.03 in   Overcast
10:55 AM 37.4 °F 33.8 °F 35.6 °F 93% 30.15 in 10.0 mi West 4.6 mph - 0.05 in   Mostly Cloudy
11:15 AM 37.4 °F 33.8 °F 33.8 °F 87% 30.16 in 10.0 mi WNW 4.6 mph - 0.02 in   Overcast
11:35 AM 37.4 °F 33.8 °F 33.8 °F 87% 30.16 in 10.0 mi West 4.6 mph - 0.02 in   Overcast
11:55 AM 35.6 °F 28.6 °F 33.8 °F 93% 30.16 in 10.0 mi West 9.2 mph - 0.02 in   Mostly Cloudy
12:15 PM 35.6 °F 30.7 °F 33.8 °F 93% 30.15 in 10.0 mi West 5.8 mph - N/A   Mostly Cloudy
12:35 PM 35.6 °F 29.2 °F 33.8 °F 93% 30.15 in 8.0 mi West 8.1 mph - N/A   Overcast
12:55 PM 35.6 °F 30.7 °F 33.8 °F 93% 30.14 in 10.0 mi WNW 5.8 mph - N/A   Overcast
1:15 PM 37.4 °F 33.8 °F 33.8 °F 87% 30.14 in 10.0 mi WNW 4.6 mph - N/A   Overcast
1:35 PM 35.6 °F 29.2 °F 32.0 °F 87% 30.13 in 10.0 mi WNW 8.1 mph - N/A   Mostly Cloudy
1:55 PM 35.6 °F 30.7 °F 30.2 °F 81% 30.13 in 10.0 mi NNW 5.8 mph - N/A   Overcast
2:15 PM 35.6 °F 31.7 °F 32.0 °F 87% 30.13 in 10.0 mi NNW 4.6 mph - N/A   Overcast
2:35 PM 35.6 °F 31.7 °F 32.0 °F 87% 30.13 in 10.0 mi WNW 4.6 mph - N/A   Overcast
2:55 PM 35.6 °F 31.7 °F 32.0 °F 87% 30.13 in 10.0 mi WNW 4.6 mph - N/A   Overcast
3:15 PM 35.6 °F 30.7 °F 30.2 °F 81% 30.12 in 10.0 mi WNW 5.8 mph - N/A   Overcast
3:35 PM 35.6 °F - 30.2 °F 81% 30.12 in 10.0 mi Calm Calm - N/A   Overcast
3:55 PM 35.6 °F 32.8 °F 30.2 °F 81% 30.12 in 10.0 mi NW 3.5 mph - N/A   Overcast
4:15 PM 35.6 °F 32.8 °F 33.8 °F 93% 30.12 in 10.0 mi ENE 3.5 mph - N/A   Overcast
4:35 PM 35.6 °F 32.8 °F 33.8 °F 93% 30.12 in 10.0 mi ENE 3.5 mph - N/A   Scattered Clouds
4:55 PM 33.8 °F 30.8 °F 32.0 °F 93% 30.12 in 10.0 mi ESE 3.5 mph - N/A   Partly Cloudy
5:15 PM 33.8 °F 29.6 °F 32.0 °F 93% 30.12 in 10.0 mi ESE 4.6 mph - N/A   Mostly Cloudy
5:35 PM 33.8 °F 29.6 °F 32.0 °F 93% 30.12 in 10.0 mi ESE 4.6 mph - N/A   Overcast
5:55 PM 33.8 °F - 33.8 °F 100% 30.12 in 10.0 mi Calm Calm - N/A   Mostly Cloudy
6:15 PM 32.0 °F 28.7 °F 32.0 °F 100% 30.13 in 10.0 mi ESE 3.5 mph - N/A   Mostly Cloudy
6:35 PM 32.0 °F 27.5 °F 32.0 °F 100% 30.13 in 10.0 mi SE 4.6 mph - N/A   Overcast
6:55 PM 30.2 °F 26.7 °F 30.2 °F 100% 30.12 in 10.0 mi ESE 3.5 mph - N/A   Scattered Clouds
7:15 PM 30.2 °F 26.7 °F 30.2 °F 100% 30.12 in 10.0 mi SE 3.5 mph - N/A   Clear
7:35 PM 30.2 °F 25.4 °F 30.2 °F 100% 30.12 in 10.0 mi ESE 4.6 mph - N/A   Clear
7:55 PM 30.2 °F 24.3 °F 30.2 °F 100% 30.11 in 10.0 mi SE 5.8 mph - N/A   Scattered Clouds
8:15 PM 30.2 °F 24.3 °F 30.2 °F 100% 30.10 in 10.0 mi ESE 5.8 mph - N/A   Partly Cloudy
8:35 PM 30.2 °F 23.4 °F 30.2 °F 100% 30.10 in 10.0 mi SE 6.9 mph - N/A   Clear
8:55 PM 30.2 °F 22.6 °F 30.2 °F 100% 30.10 in 10.0 mi SE 8.1 mph - N/A   Clear
9:15 PM 30.2 °F 25.4 °F 28.4 °F 93% 30.10 in 10.0 mi SE 4.6 mph - N/A   Clear
9:35 PM 30.2 °F 25.4 °F 28.4 °F 93% 30.10 in 10.0 mi SE 4.6 mph - N/A   Scattered Clouds
9:55 PM 30.2 °F 22.6 °F 30.2 °F 100% 30.09 in 10.0 mi SE 8.1 mph - N/A   Overcast
10:15 PM 32.0 °F 25.6 °F 30.2 °F 93% 30.09 in 10.0 mi SE 6.9 mph - N/A   Overcast
10:35 PM 32.0 °F 24.8 °F 30.2 °F 93% 30.09 in 10.0 mi SSE 8.1 mph - N/A   Scattered Clouds
10:55 PM 32.0 °F 25.6 °F 30.2 °F 93% 30.08 in 10.0 mi SE 6.9 mph - N/A   Mostly Cloudy
11:15 PM 32.0 °F 25.6 °F 30.2 °F 93% 30.08 in 10.0 mi SE 6.9 mph - N/A   Overcast
11:35 PM 33.8 °F 28.6 °F 33.8 °F 100% 30.06 in 10.0 mi SE 5.8 mph - N/A   Overcast
11:55 PM 33.8 °F 27.7 °F 33.8 °F 100% 30.05 in 10.0 mi SE 6.9 mph - N/A   Overcast